Location: Muenchen
(48.1800°N, 11.5800°E)
Time: 16:47:05
(UTC+01:00)

Vanguard 2 Rocket - Visible Passes

Search period start: 25 February 2017 00:00
Search period end: 07 March 2017 00:00
Orbit: 553 x 3329 km, 32.9° (Epoch: 23 February)

Date Brightness Start Highest point End Pass type
(mag) Time Alt. Az. Time Alt. Az. Time Alt. Az.
27 Feb 11.5 06:26:25 10° SSE 06:32:04 12° SE 06:37:41 10° ESE visible
02 Mar 11.3 05:39:03 10° SSE 05:45:03 12° SE 05:51:14 10° ESE visible
04 Mar 11.0 05:47:17 10° S 05:58:03 19° SE 06:09:43 10° E visible
05 Mar 11.1 04:52:46 10° SE 04:58:06 12° SE 05:03:44 10° ESE visible
06 Mar 10.8 05:58:21 10° S 06:11:07 26° SE 06:25:36 10° E visible
